Location: Unspecified
(0.0000°N, 0.0000°E)
Time: 18:58:41
(UTC+00:00)

N. Korean satellite - Pass Details

Date: 09 December 2017
Orbit: 461 x 513 km, 97.2° (Epoch: 10 December)

Event Time Altitude Azimuth Distance (km) Brightness Sun altitude
Rises 18:25:06 0° 171° (S) 2,523 10.4 -7.5°
Reaches altitude 10° 18:27:09 10° 172° (S) 1,651 9.5 -8.0°
Maximum altitude 18:30:41 80° 258° (WSW) 496 6.7 -8.8°
Drops below altitude 10° 18:34:17 10° 346° (NNW) 1,673 9.2 -9.6°
Sets 18:36:22 0° 347° (NNW) 2,560 10.1 -10.1°
